Weather in Goluboy Zaliv

Russia / Novosibirsk Oblast     54°49′55″N   82°54′31″E
temp.,
°C
wind,
m/s
gust,
m/s
humid.,
%
clouds,
%
prec.,
mm/h
press.,
hPa
HPBL,
m
25 february, thu
thu2501:00−17wsw7147597 3.0 1012346
04:00−21sw46913 0.0 101556
07:00−22wsw59882 0.0 1017111
10:00−24s58910 0.0 1019138
13:00−20ssw8118217 0.0 10191108
16:00−18sw101582100 0.1 10201695
19:00−19sw71389100 0.1 1021880
22:00−20ssw51189100 0.0 1022394
26 february, fri
fri2601:00−21sw71290100 0.1 1022655
04:00−21sw71290100 0.0 1023665
07:00−22sw71193100 0.1 1026870
10:00−24sw91391100 0.1 1028820
13:00−22wsw91386100 0.2 10311071
16:00−23wsw81285100 0.0 1033852
19:00−26wsw5893100 0.1 1035131
22:00−28sw4796100 0.0 1037110
27 february, sat
sat2701:00−28sw4895100 0.0 1037164
04:00−28ssw3596100 0.0 1037125
07:00−26sw5893100 0.1 1038446
10:00−25sw5892100 0.1 1038499
13:00−23sw4790100 0.1 1038558
16:00−22sw4689100 0.0 1038608
19:00−24ssw3494100 0.1 103830
22:00−27ssw449257 0.0 103930
28 february, sun
sun2801:00−28s339128 0.0 103920
04:00−28sse349320 0.0 103822
07:00−28sse459341 0.0 103844
10:00−26sse589452 0.0 1036130
13:00−19sse598867 0.0 1033351
16:00−13sse61085100 0.0 1031602
19:00−11sse51185100 0.0 1027328
22:00−9s71392100 0.5 1024639
1 march, mon
mon101:00−8s81394100 2.1 1020663
04:00−8s71394100 1.8 1017572
07:00−7s71393100 3.6 1014588
10:00−4ssw91594100 1.2 1013764
13:00−2sw121693100 2.0 1012914
16:000sw111588100 0.3 10111024
19:00−1sw91496100 0.8 1012562
22:00−1sw91496100 0.4 1013557